TimeCST,TemperatureF,Dew PointF,Humidity,Sea Level PressureIn,VisibilityMPH,Wind Direction,Wind SpeedMPH,Gust SpeedMPH,PrecipitationIn,Events,Conditions,WindDirDegrees,DateUTC
12:52 AM,57.9,55.9,93,30.23,10.0,East,5.8,-,N/A,,Clear,90,2013-12-01 06:52:00
1:52 AM,59.0,55.9,90,30.22,10.0,ESE,8.1,-,N/A,,Clear,110,2013-12-01 07:52:00
2:52 AM,57.0,55.9,96,30.21,10.0,East,5.8,-,N/A,,Clear,100,2013-12-01 08:52:00
3:52 AM,57.9,55.9,93,30.23,10.0,Calm,Calm,-,N/A,,Clear,0,2013-12-01 09:52:00
4:52 AM,57.0,55.9,96,30.22,10.0,Calm,Calm,-,N/A,,Overcast,0,2013-12-01 10:52:00
5:52 AM,57.0,57.0,100,30.20,10.0,East,4.6,-,N/A,,Clear,100,2013-12-01 11:52:00
6:52 AM,57.9,57.0,97,30.22,10.0,East,4.6,-,N/A,,Clear,80,2013-12-01 12:52:00
7:52 AM,62.1,60.1,93,30.22,10.0,East,8.1,-,N/A,,Overcast,100,2013-12-01 13:52:00
8:52 AM,63.0,60.1,90,30.22,10.0,ESE,6.9,-,N/A,,Overcast,110,2013-12-01 14:52:00
9:52 AM,64.9,61.0,87,30.22,10.0,ESE,9.2,-,N/A,,Overcast,120,2013-12-01 15:52:00
10:52 AM,64.9,60.1,84,30.21,10.0,ESE,9.2,-,N/A,,Overcast,120,2013-12-01 16:52:00
11:52 AM,66.0,61.0,84,30.18,10.0,ESE,9.2,-,N/A,,Overcast,120,2013-12-01 17:52:00
12:52 PM,66.0,61.0,84,30.15,10.0,East,9.2,-,N/A,,Overcast,100,2013-12-01 18:52:00
1:52 PM,66.0,61.0,84,30.12,10.0,ESE,9.2,-,N/A,,Overcast,110,2013-12-01 19:52:00
2:52 PM,66.0,61.0,84,30.09,10.0,ESE,8.1,-,N/A,,Overcast,120,2013-12-01 20:52:00
3:52 PM,64.9,61.0,87,30.07,10.0,SE,8.1,-,N/A,,Overcast,130,2013-12-01 21:52:00
4:52 PM,64.0,61.0,90,30.06,10.0,SE,8.1,-,N/A,,Overcast,130,2013-12-01 22:52:00
5:52 PM,63.0,61.0,93,30.04,10.0,SE,9.2,-,N/A,,Mostly Cloudy,140,2013-12-01 23:52:00
6:52 PM,63.0,61.0,93,30.04,10.0,SSE,9.2,-,N/A,,Overcast,160,2013-12-02 00:52:00
7:52 PM,63.0,61.0,93,30.04,10.0,SSE,9.2,-,N/A,,Overcast,150,2013-12-02 01:52:00
8:52 PM,63.0,61.0,93,30.04,10.0,SSE,9.2,-,N/A,,Mostly Cloudy,160,2013-12-02 02:52:00
9:52 PM,63.0,61.0,93,30.03,10.0,South,9.2,-,N/A,,Scattered Clouds,180,2013-12-02 03:52:00
10:52 PM,63.0,61.0,93,30.00,10.0,South,11.5,-,N/A,,Overcast,170,2013-12-02 04:52:00
11:52 PM,66.0,63.0,90,29.98,10.0,South,10.4,-,N/A,,Clear,190,2013-12-02 05:52:00